Regional Weather Roundup
Issued by NWS

Home | Current Version | Previous Version | Graphics & Text | Print | Product List | Glossary On
Versions: 1 2 3 4 5 6 7 8 9 10 11 12 13 14 15 16 17 18 19 20 21 22 23 24 25 26 27 28 29 30 31 32 33 34 35 36 37 38 39 40 41 42 43 44 45 46 47 48 49 50
000
ASUS43 KMKX 301811
RWRWI

WISCONSIN REGIONAL WEATHER ROUNDUP
NATIONAL WEATHER SERVICE MILWAUKEE/SULLIVAN WI
100 PM CDT SUN APR 30 2017

NOTE: "FAIR" INDICATES FEW OR NO CLOUDS BELOW 12,000 FEET WITH NO
SIGNIFICANT WEATHER AND/OR OBSTRUCTIONS TO VISIBILITY.

WIZ001-002-006>008-014>016-023>028-301900-
NORTHWEST WISCONSIN

CITY           SKY/WX    TMP DP  RH WIND       PRES   REMARKS
SUPERIOR ARPT  CLOUDY    39  33  76 NE13G21   30.12F WCI  32
6HR MIN TEMP:  37; 6HR MAX TEMP:  40;

ASHLAND        CLOUDY    42  33  70 NE13G21   30.09F
6HR MIN TEMP:  36; 6HR MAX TEMP:  44;

HAYWARD        CLOUDY    47  28  47 N13       30.03F
6HR MIN TEMP:  37; 6HR MAX TEMP:  49;

SIREN          CLOUDY    47  26  44 NE12      30.03F
6HR MIN TEMP:  39; 6HR MAX TEMP:  47;

CUMBERLAND     LGT RAIN  45  32  61 NE10G17   29.98F
RICE LAKE      DRIZZLE   46  31  56 NE7       30.01F
6HR MIN TEMP:  40; 6HR MAX TEMP:  46;

CHETEK         LGT RAIN  46  32  59 NE8       29.97F
6HR MIN TEMP:  40; 6HR MAX TEMP:  46;

LADYSMITH      CLOUDY    48  29  47 NE10G18   30.01F
6HR MIN TEMP:  40; 6HR MAX TEMP:  49;

EAU CLAIRE     CLOUDY    48  35  60 E13       29.94F
6HR MIN TEMP:  42; 6HR MAX TEMP:  48; 6HR PCP: TRACE;

MENOMONIE      DRIZZLE   46  35  64 NE13      29.96F
6HR MIN TEMP:  43; 6HR MAX TEMP:  47; 6HR PCP:  0.01;

NEW RICHMOND   DRIZZLE   43  34  70 NE13G18   29.97F
6HR MIN TEMP:  40; 6HR MAX TEMP:  43; 6HR PCP:  0.02;

OSCEOLA        LGT RAIN  43  37  79 N9        30.01F
6HR MIN TEMP:  42; 6HR MAX TEMP:  46; 6HR PCP:  0.01;

$$

WIZ003>005-009-010-017-018-301900-
NORTH CENTRAL WISCONSIN

CITY           SKY/WX    TMP DP  RH WIND       PRES   REMARKS
MANITOWISH WTR CLOUDY    47  25  42 E16       30.02F
ARBOR VITAE    CLOUDY    52  27  38 E12       29.99F
6HR MIN TEMP:  39; 6HR MAX TEMP:  52;

WOODRUFF       CLOUDY    52  27  38 E12       29.99F
6HR MIN TEMP:  39; 6HR MAX TEMP:  52;

RHINELANDER    PTSUNNY   50  28  42 E13G25    29.99F
6HR MIN TEMP:  38; 6HR MAX TEMP:  50;

EAGLE RIVER    CLOUDY    49  18  29 E16G23    29.99F
6HR MIN TEMP:  37; 6HR MAX TEMP:  50;

LAND O LAKES   CLOUDY    51  22  32 E13G20    30.02F
6HR MIN TEMP:  37; 6HR MAX TEMP:  51;

PHILLIPS       CLOUDY    48  28  46 NE13G18   29.99F
6HR MIN TEMP:  36; 6HR MAX TEMP:  48;

TOMAHAWK       CLOUDY    48  31  51 E9G18     29.98F
6HR MIN TEMP:  37; 6HR MAX TEMP:  48;

MEDFORD        CLOUDY    46  34  61 E17       29.96F
6HR MIN TEMP:  37; 6HR MAX TEMP:  46;

MERRILL        CLOUDY    47  33  57 E16G22    29.98F
6HR MIN TEMP:  38; 6HR MAX TEMP:  47;

$$

WIZ029-030-035-036-043>047-301900-
CENTRAL WISCONSIN

CITY           SKY/WX    TMP DP  RH WIND       PRES   REMARKS
WAUSAU         CLOUDY    46  33  60 E15G23    29.96F
6HR MIN TEMP:  39; 6HR MAX TEMP:  47;

MOSINEE        CLOUDY    45  36  70 E15G25    29.97F
MARSHFIELD     CLOUDY    44  35  70 E13G25    29.95F
6HR MIN TEMP:  39; 6HR MAX TEMP:  44;

STEVENS POINT  CLOUDY    39  36  86 E14G20    29.98F WCI  31
6HR MIN TEMP:  37; 6HR MAX TEMP:  40;

WAUPACA        CLOUDY    42  39  90 NE14G21   29.98F FOG
6HR MIN TEMP:  40; 6HR MAX TEMP:  43;

WAUTOMA        CLOUDY    41  39  93 NE14      29.94F
6HR MIN TEMP:  39; 6HR MAX TEMP:  41;

WISC RAPIDS    CLOUDY    42  38  85 E13       29.96F
6HR MIN TEMP:  40; 6HR MAX TEMP:  43;

CAMP DOUGLAS   CLOUDY    43  37  81 E16       29.92F
                                      6HR PCP: TRACE;

$$

WIZ011>013-019>022-031-037>040-048>050-301900-
NORTHEAST WISCONSIN

CITY           SKY/WX    TMP DP  RH WIND       PRES   REMARKS
ANTIGO         CLOUDY    43  34  69 E17G25    29.98F
6HR MIN TEMP:  37; 6HR MAX TEMP:  44;

SHAWANO        CLOUDY    41  38  89 E16       30.01F
6HR MIN TEMP:  41; 6HR MAX TEMP:  43;

OCONTO         CLOUDY    37  35  92 NE15G21   30.04F WCI  28
6HR MIN TEMP:  37; 6HR MAX TEMP:  41;

STURGEON BAY   MIX PCPN  37  35  92 NE13G22   30.05R FOG     WCI  29
6HR MIN TEMP:  37; 6HR MAX TEMP:  39; 6HR PCP:  0.03;

GREEN BAY      LGT RAIN  41  40  96 NE20      30.00F FOG
6HR MIN TEMP:  40; 6HR MAX TEMP:  42; 6HR PCP:  0.02;

MANITOWOC      CLOUDY    39  37  92 NE15G23   29.99S WCI  31
6HR MIN TEMP:  39; 6HR MAX TEMP:  40;

APPLETON       DRIZZLE   39  39 100 NE14G21   29.97F WCI  31
CLINTONVILLE   CLOUDY    39  36  87 E16G22    30.00F WCI  30
OSHKOSH        CLOUDY    40  38  93 NE16G30   29.94F FOG     WCI  31
6HR MIN TEMP:  40; 6HR MAX TEMP:  41; 6HR PCP:  0.02;

$$

WIZ032>034-041-042-053>061-301900-
SOUTHWEST WISCONSIN

CITY           SKY/WX    TMP DP  RH WIND       PRES   REMARKS
LA CROSSE      CLOUDY    46  39  76 E18G25    29.89F
6HR MIN TEMP:  44; 6HR MAX TEMP:  46; 6HR PCP:  0.01;

SPARTA         LGT RAIN  43  40  91 E10G22    29.91F
6HR MIN TEMP:  41; 6HR MAX TEMP:  43;

VIROQUA        CLOUDY    41  39  94 NE18G24   29.87F
6HR MIN TEMP:  39; 6HR MAX TEMP:  41;

BOSCOBEL       CLOUDY    45  39  79 NE12      29.85F
6HR MIN TEMP:  41; 6HR MAX TEMP:  46;

PRAIRIE DU CHI CLOUDY    44  37  76 NE10G23   29.84F
6HR MIN TEMP:  41; 6HR MAX TEMP:  44;

PLATTEVILLE    CLOUDY    44  42  92 NE18G26   29.83F
6HR MIN TEMP:  40; 6HR MAX TEMP:  44;

$$

WIZ056-057-062-063-064-067-068-301900-
SOUTH CENTRAL WISCONSIN

CITY           SKY/WX    TMP DP  RH WIND       PRES   REMARKS
REEDSBURG      CLOUDY    41  41 100 NE9       29.89F
6HR MIN TEMP:  38; 6HR MAX TEMP:  41;

BARABOO/DELLS  CLOUDY    40  39  94 E16G26    29.88F WCI  32
6HR MIN TEMP:  38; 6HR MAX TEMP:  41;

LONE ROCK      CLOUDY    44  39  82 E17       29.87F
6HR MIN TEMP:  40; 6HR MAX TEMP:  45;

MINERAL POINT  CLOUDY    45  43  93 NE17G29   29.82F
MADISON        DRIZZLE   44  41  89 NE18      29.86F
6HR MIN TEMP:  40; 6HR MAX TEMP:  44; 6HR PCP:  0.03;

MIDDLETON      CLOUDY    45  42  91 NE15G23   29.86F
6HR MIN TEMP:  41; 6HR MAX TEMP:  45;

WATERTOWN      LGT RAIN  42  42 100 NE13      29.88F
6HR MIN TEMP:  40; 6HR MAX TEMP:  42; 6HR PCP:  0.06;

MONROE         CLOUDY    43  41  93 NE17G30   29.81F
JANESVILLE     CLOUDY    46  45  93 NE13      29.85  FOG
$$

WIZ051-052-058>065-066-070>072-301900-
SOUTHEAST WISCONSIN

CITY           SKY/WX    TMP DP  RH WIND       PRES   REMARKS
MILWAUKEE      LGT RAIN  42  41  96 N17       29.89F FOG
6HR MIN TEMP:  41; 6HR MAX TEMP:  43; 6HR PCP:  0.17;

WAUKESHA       LGT RAIN  39  39 100 NE12      29.91F FOG     WCI  32
MILWAUKEE/TIMM DRIZZLE   41  37  87 NE14G20   29.91F FOG
RACINE         LGT RAIN  42  40  92 N20G25    29.88F FOG
6HR MIN TEMP:  41; 6HR MAX TEMP:  43; 6HR PCP:  0.09;

KENOSHA        LGT RAIN  44  42  93 NE17      29.85F FOG
6HR MIN TEMP:  41; 6HR MAX TEMP:  44; 6HR PCP:  0.06;

FOND DU LAC    LGT RAIN  41  37  86 NE14      29.94F FOG
6HR MIN TEMP:  40; 6HR MAX TEMP:  41; 6HR PCP:  0.02;

SHEBOYGAN      LGT RAIN  40  38  93 NE20G26   29.95F FOG     WCI  30
6HR MIN TEMP:  39; 6HR MAX TEMP:  40; 6HR PCP:  0.03;

WEST BEND      LGT RAIN  39  39 100 NE9       29.93S WCI  33
JUNEAU         LGT RAIN  40  39  97 NE14G21   29.91F WCI  32
6HR MIN TEMP:  38; 6HR MAX TEMP:  40;

$$

LSZ147-162-301900-
LAKE SUPERIOR

STATION/POSITION TIME  TEMP    WIND        PRES    WAVE
                       AIR SEA DIR/SP/G            HT/PER
                 (UTC) (F)     (DEG/KT/KT) (MB)    (FT/S)
DEVILS ISLAND    1800   37      50/ 22/ 24 1021.1F
PORT WING        1700   39      30/ 18/ 21 1020.3S
SAXON HARBOR     1740   39      40/ 11/ 14 1019.0F
$$

LMZ867-665-643>646-301900-
LAKE MICHIGAN

STATION/POSITION TIME  TEMP    WIND        PRES    WAVE
                       AIR SEA DIR/SP/G            HT/PER
                 (UTC) (F)     (DEG/KT/KT) (MB)    (FT/S)
CHAMBERS ISLAND  1740   37      30/ 16/ 22 1017.6F
N MID LAKE BUOY  1750   37 37   50/ 19/ 23 1018.5F   5/ 5
NORT


USA.gov is the U.S. government's official web portal to all federal, state and local government web resources and services.